Erie, CO

3:00 PM MDT on August 19, 2017 (GMT -0600)
Erie Municipal Airport

Weather History for KEIK - October, 2013

Change the Weather History Date:

Saturday, October 12, 2013

  Actual Average (KBJC) Record (KBJC)
Temperature  
Mean Temperature 47 °F -  
Max Temperature 55 °F 65 °F 85 °F (1991)
Min Temperature 39 °F 41 °F 29 °F (1990)
Degree Days  
Heating Degree Days 18    
Moisture  
Dew Point 40 °F    
Average Humidity 80    
Maximum Humidity 97    
Minimum Humidity 56    
Precipitation  
Precipitation 0.00 in - - ()
Sea Level Pressure  
Sea Level Pressure 30.14 in    
Wind  
Wind Speed 4 mph (North)    
Max Wind Speed 8 mph    
Max Gust Speed -    
Visibility 10 miles    
Events      
Averages and records for this station are not official NWS values.
T = Trace of Precipitation, MM = Missing Value Source: NWS Daily Summary

Daily Weather History Graph

Daily Weather History Graph

Search for Another Location

Airport or City:

Trip Planner

Search our weather history database for the weather conditions in past years. The results will help you decide how hot, cold, wet, or windy it might be!

Date:

Astronomy

Oct. 12, 2013 Rise Set
Actual Time 7:07 AM MDT 6:24 PM MDT
Civil Twilight 6:40 AM MDT 6:51 PM MDT
Nautical Twilight 6:09 AM MDT 7:23 PM MDT
Astronomical Twilight 5:37 AM MDT 7:54 PM MDT
Moon 2:36 PM MDT (10/12) 12:14 AM MDT (10/12)
Length of Visible Light 12h 11m
Length of Day
11h 16m
First Quarter, 59% of the Moon is Illuminated
Oct 12
First Quarter
Oct 18
Full
Oct 26
Last Quarter
Nov 3
New
Nov 9
First Quarter

Hourly Weather History & Observations

Time (MDT) Temp. Windchill Dew Point Humidity Pressure Visibility Wind Dir Wind Speed Gust Speed Precip Events Conditions
12:14 AM 43.5 °F 41.9 °F 40.3 °F 88% 30.07 in 10.0 mi West 3.5 mph - N/A   Mostly Cloudy
12:34 AM 43.0 °F - 39.9 °F 89% 30.08 in 10.0 mi Calm Calm - N/A   Scattered Clouds
12:54 AM 40.8 °F 38.8 °F 38.8 °F 93% 30.09 in 10.0 mi NNE 3.5 mph - N/A   Clear
1:14 AM 39.7 °F 36.5 °F 38.3 °F 95% 30.09 in 10.0 mi North 4.6 mph - N/A   Clear
1:34 AM 40.1 °F 38.0 °F 38.7 °F 95% 30.10 in 10.0 mi North 3.5 mph - N/A   Scattered Clouds
1:54 AM 39.2 °F - 38.3 °F 97% 30.11 in 10.0 mi Calm Calm - N/A   Mostly Cloudy
2:14 AM 39.6 °F 37.4 °F 38.7 °F 97% 30.11 in 10.0 mi North 3.5 mph - N/A   Mostly Cloudy
2:34 AM 42.4 °F 39.6 °F 41.0 °F 95% 30.12 in 10.0 mi North 4.6 mph - N/A   Overcast
2:54 AM 42.8 °F 39.3 °F 41.0 °F 93% 30.12 in 10.0 mi North 5.8 mph - N/A   Overcast
3:14 AM 43.0 °F 38.8 °F 41.2 °F 93% 30.11 in 10.0 mi North 6.9 mph - N/A   Overcast
3:34 AM 42.1 °F 37.7 °F 40.3 °F 93% 30.12 in 10.0 mi NNE 6.9 mph - N/A   Mostly Cloudy
3:54 AM 40.5 °F 36.5 °F 39.2 °F 95% 30.12 in 10.0 mi North 5.8 mph - N/A   Scattered Clouds
4:14 AM 41.9 °F 39.0 °F 41.0 °F 97% 30.13 in 10.0 mi North 4.6 mph - N/A   Mostly Cloudy
4:34 AM 42.8 °F 39.3 °F 41.5 °F 95% 30.14 in 10.0 mi North 5.8 mph - N/A   Overcast
4:54 AM 43.2 °F 39.7 °F 41.4 °F 93% 30.14 in 10.0 mi North 5.8 mph - N/A   Overcast
5:14 AM 43.2 °F 39.7 °F 41.4 °F 93% 30.15 in 10.0 mi North 5.8 mph - N/A   Overcast
5:34 AM 43.3 °F 39.2 °F 41.2 °F 92% 30.15 in 10.0 mi North 6.9 mph - N/A   Overcast
5:54 AM 43.2 °F 39.7 °F 40.6 °F 91% 30.16 in 10.0 mi North 5.8 mph - N/A   Overcast
6:14 AM 43.2 °F 40.5 °F 41.0 °F 92% 30.16 in 10.0 mi North 4.6 mph - N/A   Overcast
6:34 AM 43.3 °F 39.2 °F 40.6 °F 90% 30.17 in 10.0 mi North 6.9 mph - N/A   Overcast
6:54 AM 43.0 °F 39.5 °F 40.1 °F 90% 30.17 in 10.0 mi North 5.8 mph - N/A   Overcast
7:14 AM 42.8 °F 39.3 °F 40.1 °F 90% 30.18 in 10.0 mi North 5.8 mph - N/A   Overcast
7:34 AM 42.1 °F 38.4 °F 39.0 °F 89% 30.19 in 10.0 mi NNE 5.8 mph - N/A   Overcast
7:54 AM 41.9 °F 37.5 °F 37.8 °F 85% 30.19 in 10.0 mi NE 6.9 mph - N/A   Overcast
8:14 AM 42.1 °F 38.4 °F 37.8 °F 85% 30.20 in 10.0 mi NE 5.8 mph - N/A   Overcast
8:34 AM 42.4 °F 39.6 °F 37.9 °F 84% 30.21 in 10.0 mi NNE 4.6 mph - N/A   Overcast
8:54 AM 42.3 °F - 37.4 °F 83% 30.21 in 10.0 mi Calm Calm - N/A   Overcast
9:14 AM 42.8 °F - 37.9 °F 83% 30.21 in 10.0 mi Calm Calm - N/A   Overcast
9:34 AM 42.8 °F - 38.3 °F 84% 30.21 in 10.0 mi Calm Calm - N/A   Overcast
9:54 AM 44.8 °F - 39.2 °F 81% 30.20 in 10.0 mi Calm Calm - N/A   Mostly Cloudy
10:14 AM 45.5 °F - 39.4 °F 79% 30.20 in 10.0 mi Calm Calm - N/A   Scattered Clouds
10:34 AM 46.8 °F - 39.6 °F 76% 30.20 in 10.0 mi NE 5.8 mph - N/A   Scattered Clouds
10:54 AM 46.2 °F 45.0 °F 39.6 °F 78% 30.20 in 10.0 mi NNE 3.5 mph - N/A   Mostly Cloudy
11:14 AM 47.7 °F - 39.4 °F 73% 30.19 in 10.0 mi East 3.5 mph - N/A   Overcast
11:34 AM 48.0 °F - 40.1 °F 74% 30.19 in 10.0 mi NE 3.5 mph - N/A   Overcast
11:54 AM 48.6 °F - 40.3 °F 73% 30.18 in 10.0 mi East 4.6 mph - N/A   Overcast
12:14 PM 49.6 °F - 40.1 °F 70% 30.17 in 10.0 mi East 3.5 mph - N/A   Mostly Cloudy
12:34 PM 51.4 °F - 39.9 °F 65% 30.17 in 10.0 mi NE 3.5 mph - N/A   Mostly Cloudy
12:54 PM 52.2 °F - 40.1 °F 64% 30.15 in 10.0 mi Calm Calm - N/A   Scattered Clouds
1:14 PM 52.9 °F - 40.5 °F 63% 30.14 in 10.0 mi North 4.6 mph - N/A   Clear
1:34 PM 53.6 °F - 41.0 °F 62% 30.13 in 10.0 mi NW 3.5 mph - N/A   Clear
1:54 PM 53.2 °F - 40.5 °F 62% 30.13 in 10.0 mi North 6.9 mph - N/A   Scattered Clouds
2:14 PM 54.0 °F - 40.6 °F 61% 30.11 in 10.0 mi NNW 3.5 mph - N/A   Scattered Clouds
2:34 PM 54.5 °F - 41.0 °F 60% 30.11 in 10.0 mi North 4.6 mph - N/A   Scattered Clouds
2:54 PM 54.7 °F - 41.4 °F 61% 30.11 in 10.0 mi North 5.8 mph - N/A   Clear
3:14 PM 55.0 °F - 40.8 °F 59% 30.10 in 10.0 mi North 4.6 mph - N/A   Clear
3:34 PM 55.4 °F - 40.6 °F 58% 30.10 in 10.0 mi NNW 5.8 mph - N/A   Clear
3:54 PM 55.8 °F - 40.6 °F 57% 30.10 in 10.0 mi North 8.1 mph - N/A   Clear
4:14 PM 55.9 °F - 40.6 °F 56% 30.10 in 10.0 mi NNW 8.1 mph - N/A   Clear
4:34 PM 55.8 °F - 40.6 °F 57% 30.10 in 10.0 mi North 6.9 mph - N/A   Clear
4:54 PM 55.4 °F - 40.1 °F 56% 30.10 in 10.0 mi North 4.6 mph - N/A   Scattered Clouds
5:14 PM 54.9 °F - 40.5 °F 58% 30.10 in 10.0 mi NNW 8.1 mph - N/A   Scattered Clouds
5:34 PM 54.3 °F - 40.6 °F 60% 30.11 in 10.0 mi North 8.1 mph - N/A   Mostly Cloudy
5:54 PM 52.7 °F - 40.6 °F 64% 30.11 in 10.0 mi NNW 5.8 mph - N/A   Overcast
6:14 PM 51.8 °F - 40.5 °F 65% 30.11 in 10.0 mi NW 3.5 mph - N/A   Overcast
6:34 PM 51.3 °F - 41.4 °F 69% 30.11 in 10.0 mi WNW 3.5 mph - N/A   Overcast
6:54 PM 50.4 °F - 41.4 °F 71% 30.12 in 10.0 mi NW 3.5 mph - N/A   Overcast
7:14 PM 49.3 °F - 41.0 °F 73% 30.12 in 10.0 mi Calm Calm - N/A   Mostly Cloudy
7:34 PM 48.2 °F - 41.0 °F 76% 30.13 in 10.0 mi Calm Calm - N/A   Mostly Cloudy
7:54 PM 47.8 °F - 41.0 °F 77% 30.13 in 10.0 mi Calm Calm - N/A   Scattered Clouds
8:14 PM 46.6 °F - 41.4 °F 82% 30.13 in 10.0 mi Calm Calm - N/A   Clear
8:34 PM 46.4 °F - 41.4 °F 83% 30.14 in 10.0 mi Calm Calm - N/A   Clear
8:54 PM 44.8 °F - 41.2 °F 87% 30.14 in 10.0 mi Calm Calm - N/A   Clear
9:14 PM 45.3 °F - 41.4 °F 86% 30.14 in 10.0 mi Calm Calm - N/A   Scattered Clouds
9:34 PM 44.8 °F - 41.4 °F 88% 30.14 in 10.0 mi Calm Calm - N/A   Scattered Clouds
9:54 PM 44.1 °F - 41.2 °F 90% 30.15 in 10.0 mi Calm Calm - N/A   Scattered Clouds
10:14 PM 43.5 °F - 40.3 °F 88% 30.15 in 10.0 mi Calm Calm - N/A   Clear
10:34 PM 43.0 °F - 40.3 °F 90% 30.15 in 10.0 mi Calm Calm - N/A   Clear
10:54 PM 41.9 °F - 39.7 °F 92% 30.15 in 7.0 mi Calm Calm - N/A   Clear
11:14 PM 41.2 °F - 39.4 °F 93% 30.15 in 7.0 mi Calm Calm - N/A   Clear
11:34 PM 41.4 °F - 39.2 °F 92% 30.15 in 7.0 mi Calm Calm - N/A   Clear
11:54 PM 41.2 °F - 38.8 °F 91% 30.15 in 7.0 mi Calm Calm - N/A   Clear